| time (UTC) | temp C | wind direction | speed KPH | gust KPH | rain 1hr cm | rain 24hr cm | rain mn cm | humidity % | barometer mb |
| 20260505140323 | 6 | 266 | 6.4 | 12.9 | 0.00 | 0.00 | 0.00 | 51 | 1007.0 |
| 20260505130240 | 6 | 225 | 4.8 | 12.9 | 0.00 | 0.00 | 0.00 | 61 | 1007.0 |
| 20260505124731 | 5 | 325 | 8.0 | 11.3 | 0.00 | 0.00 | 0.00 | 62 | 1006.6 |
| 20260505124228 | 5 | 230 | 4.8 | 9.7 | 0.00 | 0.00 | 0.00 | 63 | 1006.6 |
| 20260505123723 | 5 | 256 | 4.8 | 6.4 | 0.00 | 0.00 | 0.00 | 63 | 1006.4 |
| 20260505123220 | 5 | 247 | 4.8 | 4.8 | 0.00 | 0.00 | 0.00 | 64 | 1006.4 |
| 20260505122716 | 5 | 267 | 3.2 | 9.7 | 0.00 | 0.00 | 0.00 | 65 | 1006.2 |
| 20260505122213 | 5 | 210 | 4.8 | 9.7 | 0.00 | 0.00 | 0.00 | 65 | 1006.1 |
| 20260505121705 | 5 | 263 | 3.2 | 11.3 | 0.00 | 0.00 | 0.00 | 67 | 1006.0 |
| 20260505121201 | 4 | 220 | 4.8 | 11.3 | 0.00 | 0.00 | 0.00 | 67 | 1005.9 |
| 20260505120657 | 3 | 232 | 4.8 | 6.4 | 0.00 | 0.00 | 0.00 | 68 | 1005.6 |
| 20260505120153 | 3 | 224 | 3.2 | 6.4 | 0.00 | 0.00 | 0.00 | 69 | 1005.4 |
| 20260505115646 | 3 | 265 | 6.4 | 6.4 | 0.00 | 0.00 | 0.00 | 69 | 1005.2 |
| 20260505115144 | 3 | 260 | 4.8 | 9.7 | 0.00 | 0.00 | 0.00 | 70 | 1005.5 |
| 20260505114636 | 3 | 208 | 3.2 | 4.8 | 0.00 | 0.00 | 0.00 | 70 | 1005.4 |
| 20260505114133 | 2 | 213 | 3.2 | 3.2 | 0.00 | 0.00 | 0.00 | 71 | 1005.3 |
| 20260505113629 | 2 | 206 | 1.6 | 4.8 | 0.00 | 0.00 | 0.00 | 70 | 1005.5 |
| 20260505113126 | 2 | 221 | 3.2 | 6.4 | 0.00 | 0.00 | 0.00 | 71 | 1005.5 |
| 20260505112622 | 2 | 213 | 3.2 | 4.8 | 0.00 | 0.00 | 0.00 | 71 | 1005.3 |
| 20260505112120 | 2 | 211 | 3.2 | 3.2 | 0.00 | 0.00 | 0.00 | 73 | 1005.3 |
| 20260505111614 | 2 | 230 | 3.2 | 4.8 | 0.00 | 0.00 | 0.00 | 72 | 1005.4 |
| 20260505111110 | 2 | 218 | 3.2 | 4.8 | 0.00 | 0.00 | 0.00 | 72 | 1005.2 |
| 20260505110607 | 2 | 214 | 3.2 | 3.2 | 0.00 | 0.00 | 0.00 | 73 | 1005.2 |
| 20260505110104 | 2 | 226 | 4.8 | 4.8 | 0.00 | 0.00 | 0.00 | 72 | 1005.2 |
| 20260505102039 | 3 | 212 | 1.6 | 3.2 | 0.00 | 0.00 | 0.00 | 68 | 1004.8 |
| 20260505101537 | 3 | 223 | 3.2 | 3.2 | 0.00 | 0.00 | 0.00 | 67 | 1004.7 |
| 20260505101033 | 3 | 213 | 3.2 | 4.8 | 0.00 | 0.00 | 0.00 | 66 | 1004.7 |
| 20260505100531 | 3 | 220 | 1.6 | 4.8 | 0.00 | 0.00 | 0.00 | 67 | 1004.8 |
| 20260505100028 | 3 | 220 | 3.2 | 4.8 | 0.00 | 0.00 | 0.00 | 67 | 1004.9 |
| 20260505095524 | 2 | 211 | 3.2 | 3.2 | 0.00 | 0.00 | 0.00 | 67 | 1004.6 |
| 20260505095020 | 2 | 203 | 1.6 | 3.2 | 0.00 | 0.00 | 0.00 | 68 | 1004.5 |
| 20260505094517 | 2 | 204 | 1.6 | 3.2 | 0.00 | 0.00 | 0.00 | 67 | 1004.5 |
| 20260505094013 | 2 | 193 | 1.6 | 3.2 | 0.00 | 0.00 | 0.00 | 67 | 1004.4 |
| 20260505093509 | 3 | 192 | 1.6 | 3.2 | 0.00 | 0.00 | 0.00 | 68 | 1004.5 |
| 20260505093007 | 2 | 193 | 1.6 | 3.2 | 0.00 | 0.00 | 0.00 | 69 | 1004.4 |
| 20260505092504 | 2 | 186 | 1.6 | 1.6 | 0.00 | 0.00 | 0.00 | 69 | 1004.3 |
| 20260505092002 | 2 | 195 | 0.0 | 3.2 | 0.00 | 0.00 | 0.00 | 68 | 1004.2 |
| 20260505091459 | 2 | 193 | 1.6 | 1.6 | 0.00 | 0.00 | 0.00 | 69 | 1004.1 |
| 20260505090957 | 2 | 195 | 1.6 | 1.6 | 0.00 | 0.00 | 0.00 | 69 | 1004.1 |
| 20260505090455 | 2 | 195 | 1.6 | 3.2 | 0.00 | 0.00 | 0.00 | 69 | 1004.0 |
| 20260505085952 | 2 | 185 | 1.6 | 1.6 | 0.00 | 0.00 | 0.00 | 70 | 1004.0 |
| 20260505085450 | 2 | 186 | 1.6 | 1.6 | 0.00 | 0.00 | 0.00 | 71 | 1004.0 |
| 20260505084948 | 2 | 186 | 0.0 | 1.6 | 0.00 | 0.00 | 0.00 | 70 | 1003.6 |
| 20260505084446 | 2 | 184 | 0.0 | 0.0 | 0.00 | 0.00 | 0.00 | 70 | 1003.7 |
| 20260505083943 | 2 | 184 | 0.0 | 3.2 | 0.00 | 0.00 | 0.00 | 68 | 1003.5 |
| 20260505083441 | 2 | 184 | 0.0 | 1.6 | 0.00 | 0.00 | 0.00 | 67 | 1003.6 |
| 20260505082937 | 2 | 184 | 1.6 | 3.2 | 0.00 | 0.00 | 0.00 | 67 | 1003.5 |
| 20260505082432 | 2 | 185 | 1.6 | 1.6 | 0.00 | 0.00 | 0.00 | 66 | 1003.3 |
| 20260505081930 | 2 | 193 | 0.0 | 0.0 | 0.00 | 0.00 | 0.00 | 66 | 1003.3 |
| 20260505081427 | 2 | 193 | 0.0 | 0.0 | 0.00 | 0.00 | 0.00 | 66 | 1003.3 |
| 20260505080923 | 3 | 193 | 0.0 | 0.0 | 0.00 | 0.00 | 0.00 | 65 | 1003.4 |
| 20260505080419 | 3 | 193 | 0.0 | 0.0 | 0.00 | 0.00 | 0.00 | 64 | 1003.2 |
| 20260505075914 | 3 | 193 | 0.0 | 0.0 | 0.00 | 0.00 | 0.00 | 62 | 1003.3 |
| 20260505075412 | 3 | 200 | 1.6 | 1.6 | 0.00 | 0.00 | 0.00 | 61 | 1003.3 |
| 20260505074909 | 3 | 198 | 1.6 | 3.2 | 0.00 | 0.00 | 0.00 | 60 | 1003.2 |
| 20260505074406 | 3 | 206 | 0.0 | 0.0 | 0.00 | 0.00 | 0.00 | 60 | 1003.4 |
| 20260505073903 | 4 | 206 | 0.0 | 1.6 | 0.00 | 0.00 | 0.00 | 59 | 1003.3 |
| 20260505073401 | 4 | 207 | 1.6 | 1.6 | 0.00 | 0.00 | 0.00 | 58 | 1003.4 |
| 20260505072858 | 5 | 201 | 0.0 | 1.6 | 0.00 | 0.00 | 0.00 | 58 | 1003.3 |
| 20260505072354 | 5 | 205 | 1.6 | 3.2 | 0.00 | 0.00 | 0.00 | 56 | 1003.3 |
| 20260505071850 | 5 | 212 | 3.2 | 3.2 | 0.00 | 0.00 | 0.00 | 57 | 1003.4 |
| 20260505071347 | 5 | 205 | 0.0 | 3.2 | 0.00 | 0.00 | 0.00 | 55 | 1003.4 |
| 20260505070845 | 5 | 234 | 3.2 | 6.4 | 0.00 | 0.00 | 0.00 | 54 | 1003.3 |
| 20260505070341 | 5 | 290 | 1.6 | 4.8 | 0.00 | 0.00 | 0.00 | 55 | 1003.4 |
| 20260505065837 | 5 | 281 | 4.8 | 4.8 | 0.00 | 0.00 | 0.00 | 55 | 1003.4 |
| 20260505065334 | 5 | 224 | 1.6 | 3.2 | 0.00 | 0.00 | 0.00 | 55 | 1003.5 |
| 20260505064831 | 5 | 209 | 1.6 | 3.2 | 0.00 | 0.00 | 0.00 | 55 | 1003.4 |
| 20260505064327 | 5 | 200 | 3.2 | 4.8 | 0.00 | 0.00 | 0.00 | 54 | 1003.3 |
| 20260505063826 | 5 | 256 | 4.8 | 4.8 | 0.00 | 0.00 | 0.00 | 53 | 1003.3 |
| 20260505063321 | 5 | 234 | 3.2 | 3.2 | 0.00 | 0.00 | 0.00 | 53 | 1003.5 |
| 20260505062818 | 6 | 199 | 1.6 | 3.2 | 0.00 | 0.00 | 0.00 | 52 | 1003.4 |
| 20260505062316 | 6 | 125 | 0.0 | 6.4 | 0.00 | 0.00 | 0.00 | 52 | 1003.4 |
| 20260505061812 | 6 | 253 | 3.2 | 9.7 | 0.00 | 0.00 | 0.00 | 52 | 1003.4 |
| 20260505061311 | 6 | 313 | 3.2 | 6.4 | 0.00 | 0.00 | 0.00 | 51 | 1003.4 |
| 20260505060808 | 6 | 245 | 4.8 | 11.3 | 0.00 | 0.00 | 0.00 | 51 | 1003.3 |
| 20260505060305 | 6 | 341 | 4.8 | 9.7 | 0.00 | 0.00 | 0.00 | 50 | 1003.3 |
| 20260505055800 | 6 | 293 | 6.4 | 16.1 | 0.00 | 0.00 | 0.00 | 50 | 1003.4 |
| 20260505055256 | 6 | 326 | 3.2 | 12.9 | 0.00 | 0.00 | 0.00 | 50 | 1003.4 |
| 20260505054754 | 6 | 268 | 6.4 | 6.4 | 0.00 | 0.00 | 0.00 | 51 | 1003.2 |
| 20260505054251 | 6 | 278 | 3.2 | 6.4 | 0.00 | 0.00 | 0.00 | 51 | 1003.2 |
| 20260505053749 | 6 | 230 | 6.4 | 11.3 | 0.00 | 0.00 | 0.00 | 50 | 1003.0 |
| 20260505053246 | 6 | 226 | 3.2 | 4.8 | 0.00 | 0.00 | 0.00 | 50 | 1003.1 |
| 20260505052743 | 7 | 211 | 1.6 | 6.4 | 0.00 | 0.00 | 0.00 | 49 | 1003.2 |
| 20260505052240 | 7 | 322 | 6.4 | 9.7 | 0.00 | 0.00 | 0.00 | 48 | 1003.1 |
| 20260505051737 | 7 | 279 | 12.9 | 16.1 | 0.00 | 0.00 | 0.00 | 47 | 1003.1 |
| 20260505051235 | 7 | 214 | 4.8 | 12.9 | 0.00 | 0.00 | 0.00 | 47 | 1002.9 |
| 20260505050732 | 7 | 303 | 4.8 | 12.9 | 0.00 | 0.00 | 0.00 | 47 | 1002.9 |
| 20260505050225 | 7 | 0 | 8.0 | 14.5 | 0.00 | 0.00 | 0.00 | 47 | 1002.9 |
| 20260505041654 | 8 | 283 | 19.3 | 24.1 | 0.00 | 0.00 | 0.00 | 46 | 1002.2 |
| 20260505041152 | 8 | 252 | 11.3 | 29.0 | 0.00 | 0.00 | 0.00 | 47 | 1002.0 |
| 20260505040649 | 8 | 332 | 4.8 | 16.1 | 0.00 | 0.00 | 0.00 | 47 | 1001.9 |
| 20260505040146 | 8 | 327 | 8.0 | 24.1 | 0.00 | 0.00 | 0.00 | 47 | 1001.8 |
| 20260505035642 | 9 | 302 | 6.4 | 17.7 | 0.00 | 0.00 | 0.00 | 46 | 1001.6 |
| 20260505035138 | 9 | 282 | 6.4 | 11.3 | 0.00 | 0.00 | 0.00 | 46 | 1001.6 |
| 20260505034635 | 9 | 335 | 8.0 | 17.7 | 0.00 | 0.00 | 0.00 | 45 | 1001.4 |
| 20260505034132 | 10 | 321 | 8.0 | 16.1 | 0.00 | 0.00 | 0.00 | 45 | 1001.3 |
| 20260505033628 | 10 | 199 | 8.0 | 25.7 | 0.00 | 0.00 | 0.00 | 44 | 1001.1 |
| 20260505033127 | 10 | 333 | 6.4 | 17.7 | 0.00 | 0.00 | 0.00 | 44 | 1001.2 |
| 20260505032625 | 10 | 273 | 9.7 | 16.1 | 0.00 | 0.00 | 0.00 | 45 | 1001.1 |
| 20260505032121 | 10 | 277 | 4.8 | 11.3 | 0.00 | 0.00 | 0.00 | 46 | 1000.7 |
| 20260505031618 | 10 | 255 | 14.5 | 20.9 | 0.00 | 0.00 | 0.00 | 45 | 1000.8 |
| 20260505031114 | 10 | 237 | 16.1 | 27.4 | 0.00 | 0.00 | 0.00 | 46 | 1000.6 |
| 20260505030611 | 11 | 330 | 6.4 | 22.5 | 0.00 | 0.00 | 0.00 | 46 | 1000.4 |
| 20260505030107 | 11 | 268 | 9.7 | 17.7 | 0.00 | 0.00 | 0.00 | 46 | 1000.5 |
| 20260505025603 | 11 | 334 | 8.0 | 17.7 | 0.00 | 0.00 | 0.00 | 45 | 1000.4 |
| 20260505025102 | 11 | 293 | 17.7 | 29.0 | 0.00 | 0.00 | 0.00 | 45 | 1000.3 |
| 20260505024559 | 11 | 273 | 9.7 | 17.7 | 0.00 | 0.00 | 0.00 | 46 | 1000.3 |
| 20260505024056 | 11 | 341 | 12.9 | 16.1 | 0.00 | 0.00 | 0.00 | 45 | 999.9 |
| 20260505023553 | 11 | 307 | 9.7 | 25.7 | 0.00 | 0.00 | 0.00 | 44 | 999.9 |
| 20260505023051 | 11 | 273 | 9.7 | 17.7 | 0.00 | 0.00 | 0.00 | 44 | 999.5 |
| 20260505022548 | 11 | 225 | 3.2 | 9.7 | 0.00 | 0.00 | 0.00 | 44 | 999.5 |
| 20260505022045 | 12 | 223 | 6.4 | 20.9 | 0.00 | 0.00 | 0.00 | 43 | 999.5 |
| 20260505021541 | 12 | 351 | 14.5 | 22.5 | 0.00 | 0.00 | 0.00 | 43 | 999.5 |
| 20260505021033 | 12 | 312 | 9.7 | 22.5 | 0.00 | 0.00 | 0.00 | 44 | 999.3 |
| 20260505020532 | 12 | 351 | 11.3 | 20.9 | 0.00 | 0.00 | 0.00 | 43 | 999.2 |
| 20260505020030 | 12 | 300 | 9.7 | 22.5 | 0.00 | 0.00 | 0.00 | 43 | 999.2 |
| 20260505015527 | 12 | 326 | 20.9 | 29.0 | 0.00 | 0.00 | 0.00 | 42 | 999.2 |
| 20260505015024 | 12 | 305 | 9.7 | 16.1 | 0.00 | 0.00 | 0.00 | 42 | 998.9 |
| 20260505014520 | 12 | 243 | 6.4 | 17.7 | 0.00 | 0.00 | 0.00 | 42 | 998.9 |
| 20260505014018 | 12 | 248 | 6.4 | 9.7 | 0.00 | 0.00 | 0.00 | 41 | 998.8 |
| 20260505013515 | 13 | 335 | 6.4 | 14.5 | 0.00 | 0.00 | 0.00 | 41 | 998.6 |
| 20260505013012 | 13 | 267 | 6.4 | 30.6 | 0.00 | 0.00 | 0.00 | 40 | 998.5 |
| 20260505012510 | 13 | 240 | 11.3 | 20.9 | 0.00 | 0.00 | 0.00 | 40 | 998.5 |
| 20260505012007 | 13 | 277 | 12.9 | 17.7 | 0.00 | 0.00 | 0.00 | 40 | 998.4 |
| 20260505011503 | 13 | 255 | 8.0 | 14.5 | 0.00 | 0.00 | 0.00 | 40 | 998.2 |
| 20260505011000 | 13 | 304 | 14.5 | 20.9 | 0.00 | 0.00 | 0.00 | 40 | 998.2 |
| 20260505010455 | 13 | 349 | 14.5 | 20.9 | 0.00 | 0.00 | 0.00 | 39 | 998.0 |
| 20260505005951 | 13 | 281 | 4.8 | 14.5 | 0.00 | 0.00 | 0.00 | 40 | 998.0 |
| 20260505005448 | 14 | 250 | 3.2 | 20.9 | 0.00 | 0.00 | 0.00 | 40 | 997.9 |
| 20260505004946 | 14 | 274 | 6.4 | 20.9 | 0.00 | 0.00 | 0.00 | 39 | 997.9 |
| 20260505004443 | 15 | 337 | 11.3 | 27.4 | 0.00 | 0.00 | 0.00 | 39 | 997.7 |
| 20260505003940 | 15 | 303 | 12.9 | 16.1 | 0.00 | 0.00 | 0.00 | 36 | 997.5 |
| 20260505003437 | 15 | 255 | 9.7 | 17.7 | 0.00 | 0.00 | 0.00 | 36 | 997.6 |
| 20260505002933 | 15 | 305 | 14.5 | 20.9 | 0.00 | 0.00 | 0.00 | 36 | 997.4 |
| 20260505002429 | 16 | 248 | 9.7 | 16.1 | 0.00 | 0.00 | 0.00 | 36 | 997.1 |
| 20260505001928 | 16 | 199 | 3.2 | 11.3 | 0.00 | 0.00 | 0.00 | 36 | 997.0 |
| 20260505001425 | 16 | 357 | 6.4 | 16.1 | 0.00 | 0.00 | 0.00 | 35 | 996.9 |
| 20260505000922 | 16 | 239 | 4.8 | 12.9 | 0.00 | 0.00 | 0.00 | 35 | 996.8 |
| 20260505000420 | 16 | 300 | 12.9 | 22.5 | 0.00 | 0.00 | 0.00 | 34 | 996.9 |
| 20260504235916 | 16 | 271 | 9.7 | 22.5 | 0.00 | 0.00 | 0.00 | 34 | 996.8 |
| 20260504235414 | 16 | 240 | 9.7 | 17.7 | 0.00 | 0.00 | 0.00 | 34 | 996.7 |
| 20260504234910 | 16 | 244 | 14.5 | 27.4 | 0.00 | 0.00 | 0.00 | 34 | 996.6 |
| 20260504234408 | 16 | 305 | 6.4 | 16.1 | 0.00 | 0.00 | 0.00 | 34 | 996.4 |
| 20260504233904 | 17 | 318 | 12.9 | 25.7 | 0.00 | 0.00 | 0.00 | 33 | 996.3 |
| 20260504233359 | 17 | 277 | 17.7 | 30.6 | 0.00 | 0.00 | 0.00 | 33 | 996.1 |
| 20260504232856 | 17 | 262 | 11.3 | 16.1 | 0.00 | 0.00 | 0.00 | 34 | 996.3 |
| 20260504232353 | 17 | 282 | 14.5 | 20.9 | 0.00 | 0.00 | 0.00 | 34 | 996.2 |
| 20260504231850 | 17 | 222 | 9.7 | 24.1 | 0.00 | 0.00 | 0.00 | 33 | 996.1 |
| 20260504231347 | 17 | 228 | 4.8 | 20.9 | 0.00 | 0.00 | 0.00 | 34 | 996.3 |
| 20260504230843 | 17 | 177 | 6.4 | 17.7 | 0.00 | 0.00 | 0.00 | 33 | 996.2 |
| 20260504230341 | 18 | 279 | 11.3 | 14.5 | 0.00 | 0.00 | 0.00 | 33 | 996.1 |
| 20260504225839 | 18 | 229 | 4.8 | 17.7 | 0.00 | 0.00 | 0.00 | 33 | 996.3 |
| 20260504225335 | 18 | 251 | 14.5 | 22.5 | 0.00 | 0.00 | 0.00 | 32 | 996.1 |
| 20260504224833 | 18 | 270 | 4.8 | 14.5 | 0.00 | 0.00 | 0.00 | 31 | 996.1 |
| 20260504224330 | 18 | 227 | 11.3 | 16.1 | 0.00 | 0.00 | 0.00 | 30 | 996.2 |
| 20260504223826 | 18 | 283 | 6.4 | 11.3 | 0.00 | 0.00 | 0.00 | 32 | 996.1 |
| 20260504223322 | 18 | 264 | 8.0 | 17.7 | 0.00 | 0.00 | 0.00 | 31 | 996.1 |
| 20260504222819 | 18 | 290 | 9.7 | 14.5 | 0.00 | 0.00 | 0.00 | 30 | 995.7 |
| 20260504222316 | 18 | 213 | 4.8 | 17.7 | 0.00 | 0.00 | 0.00 | 31 | 995.7 |
| 20260504221814 | 18 | 285 | 9.7 | 17.7 | 0.00 | 0.00 | 0.00 | 29 | 995.7 |
| 20260504221310 | 18 | 289 | 9.7 | 20.9 | 0.00 | 0.00 | 0.00 | 30 | 995.8 |
| 20260504220807 | 18 | 261 | 6.4 | 12.9 | 0.00 | 0.00 | 0.00 | 30 | 995.6 |
| 20260504220304 | 19 | 258 | 14.5 | 24.1 | 0.00 | 0.00 | 0.00 | 29 | 995.9 |
| 20260504215802 | 19 | 304 | 14.5 | 20.9 | 0.00 | 0.00 | 0.00 | 30 | 995.9 |
| 20260504215258 | 20 | 226 | 11.3 | 20.9 | 0.00 | 0.00 | 0.00 | 30 | 995.9 |
| 20260504214753 | 19 | 204 | 11.3 | 24.1 | 0.00 | 0.00 | 0.00 | 30 | 995.8 |
| 20260504214250 | 19 | 231 | 12.9 | 20.9 | 0.00 | 0.00 | 0.00 | 29 | 995.7 |
| 20260504213747 | 20 | 280 | 16.1 | 35.4 | 0.00 | 0.00 | 0.00 | 28 | 995.6 |
| 20260504213238 | 20 | 227 | 9.7 | 20.9 | 0.00 | 0.00 | 0.00 | 29 | 995.4 |
| 20260504212735 | 20 | 225 | 14.5 | 27.4 | 0.00 | 0.00 | 0.00 | 29 | 995.5 |
| 20260504212231 | 20 | 230 | 11.3 | 20.9 | 0.00 | 0.00 | 0.00 | 30 | 995.5 |
| 20260504211729 | 20 | 255 | 17.7 | 22.5 | 0.00 | 0.00 | 0.00 | 29 | 995.5 |
| 20260504211225 | 20 | 317 | 14.5 | 25.7 | 0.00 | 0.00 | 0.00 | 29 | 995.5 |
| 20260504210722 | 20 | 255 | 9.7 | 22.5 | 0.00 | 0.00 | 0.00 | 29 | 995.3 |
| 20260504210214 | 21 | 335 | 8.0 | 16.1 | 0.00 | 0.00 | 0.00 | 28 | 995.2 |
| 20260504205711 | 21 | 257 | 14.5 | 24.1 | 0.00 | 0.00 | 0.00 | 29 | 995.0 |
| 20260504205208 | 21 | 333 | 9.7 | 20.9 | 0.00 | 0.00 | 0.00 | 30 | 995.2 |
| 20260504204706 | 21 | 241 | 9.7 | 17.7 | 0.00 | 0.00 | 0.00 | 31 | 995.2 |
| 20260504204205 | 22 | 261 | 14.5 | 20.9 | 0.00 | 0.00 | 0.00 | 30 | 995.0 |
| 20260504203703 | 22 | 244 | 6.4 | 11.3 | 0.00 | 0.00 | 0.00 | 35 | 994.8 |
| 20260504203200 | 22 | 229 | 8.0 | 14.5 | 0.00 | 0.00 | 0.00 | 33 | 994.8 |
| 20260504202654 | 21 | 275 | 11.3 | 25.7 | 0.00 | 0.00 | 0.00 | 33 | 994.8 |
| 20260504202152 | 22 | 235 | 24.1 | 27.4 | 0.00 | 0.00 | 0.00 | 32 | 994.4 |
| 20260504201649 | 21 | 194 | 11.3 | 17.7 | 0.00 | 0.00 | 0.00 | 33 | 994.3 |
| 20260504201146 | 21 | 250 | 11.3 | 16.1 | 0.00 | 0.00 | 0.00 | 35 | 994.6 |
| 20260504200643 | 21 | 230 | 9.7 | 16.1 | 0.00 | 0.00 | 0.00 | 35 | 994.6 |
| 20260504200140 | 22 | 222 | 17.7 | 25.7 | 0.00 | 0.00 | 0.00 | 33 | 994.6 |
| 20260504195636 | 22 | 224 | 8.0 | 16.1 | 0.00 | 0.00 | 0.00 | 34 | 994.4 |
| 20260504195132 | 22 | 220 | 9.7 | 24.1 | 0.00 | 0.00 | 0.00 | 34 | 994.2 |
| 20260504194629 | 22 | 268 | 14.5 | 22.5 | 0.00 | 0.00 | 0.00 | 34 | 994.5 |
| 20260504194125 | 21 | 232 | 19.3 | 29.0 | 0.00 | 0.00 | 0.00 | 34 | 994.5 |
| 20260504193622 | 22 | 228 | 16.1 | 25.7 | 0.00 | 0.00 | 0.00 | 35 | 994.4 |
| 20260504193120 | 21 | 226 | 12.9 | 16.1 | 0.00 | 0.00 | 0.00 | 34 | 994.5 |
| 20260504192618 | 21 | 213 | 9.7 | 22.5 | 0.00 | 0.00 | 0.00 | 38 | 994.6 |
| 20260504192116 | 21 | 228 | 9.7 | 38.6 | 0.00 | 0.00 | 0.00 | 37 | 994.4 |
| 20260504191614 | 22 | 216 | 12.9 | 20.9 | 0.00 | 0.00 | 0.00 | 36 | 994.5 |
| 20260504191110 | 22 | 239 | 14.5 | 22.5 | 0.00 | 0.00 | 0.00 | 35 | 994.5 |
| 20260504190606 | 22 | 245 | 9.7 | 30.6 | 0.00 | 0.00 | 0.00 | 35 | 994.4 |
| 20260504185559 | 22 | 221 | 9.7 | 16.1 | 0.00 | 0.00 | 0.00 | 37 | 994.4 |
| 20260504185055 | 22 | 272 | 14.5 | 30.6 | 0.00 | 0.00 | 0.00 | 36 | 994.3 |
| 20260504184551 | 22 | 251 | 9.7 | 17.7 | 0.00 | 0.00 | 0.00 | 39 | 994.4 |
| 20260504184047 | 22 | 233 | 11.3 | 22.5 | 0.00 | 0.00 | 0.00 | 37 | 994.5 |
| 20260504183544 | 22 | 248 | 12.9 | 22.5 | 0.00 | 0.00 | 0.00 | 36 | 994.3 |
| 20260504183042 | 22 | 322 | 19.3 | 35.4 | 0.00 | 0.00 | 0.00 | 37 | 994.2 |
| 20260504182538 | 22 | 262 | 14.5 | 27.4 | 0.00 | 0.00 | 0.00 | 37 | 994.2 |
| 20260504182036 | 22 | 231 | 19.3 | 24.1 | 0.00 | 0.00 | 0.00 | 37 | 994.7 |
| 20260504181533 | 22 | 242 | 11.3 | 35.4 | 0.00 | 0.00 | 0.00 | 37 | 994.5 |
| 20260504181031 | 22 | 236 | 14.5 | 27.4 | 0.00 | 0.00 | 0.00 | 38 | 994.2 |
| 20260504180530 | 22 | 283 | 12.9 | 27.4 | 0.00 | 0.00 | 0.00 | 38 | 994.3 |
| 20260504180028 | 21 | 256 | 16.1 | 22.5 | 0.00 | 0.00 | 0.00 | 39 | 994.3 |
| 20260504175525 | 21 | 269 | 11.3 | 14.5 | 0.00 | 0.00 | 0.00 | 38 | 994.4 |
| 20260504175022 | 21 | 28 | 14.5 | 29.0 | 0.00 | 0.00 | 0.00 | 37 | 994.1 |
| 20260504174520 | 22 | 220 | 14.5 | 20.9 | 0.00 | 0.00 | 0.00 | 36 | 994.2 |
| 20260504174017 | 22 | 264 | 11.3 | 29.0 | 0.00 | 0.00 | 0.00 | 37 | 994.2 |
| 20260504173513 | 22 | 236 | 11.3 | 22.5 | 0.00 | 0.00 | 0.00 | 38 | 994.3 |
| 20260504173011 | 22 | 237 | 12.9 | 20.9 | 0.00 | 0.00 | 0.00 | 37 | 994.2 |
| 20260504172507 | 21 | 216 | 11.3 | 20.9 | 0.00 | 0.00 | 0.00 | 38 | 994.3 |
| 20260504172003 | 21 | 229 | 8.0 | 20.9 | 0.00 | 0.00 | 0.00 | 38 | 994.3 |
| 20260504171500 | 21 | 262 | 8.0 | 20.9 | 0.00 | 0.00 | 0.00 | 39 | 994.4 |
| 20260504170957 | 21 | 242 | 9.7 | 14.5 | 0.00 | 0.00 | 0.00 | 38 | 994.3 |
| 20260504170453 | 21 | 226 | 11.3 | 29.0 | 0.00 | 0.00 | 0.00 | 39 | 994.5 |
| 20260504160413 | 21 | 232 | 14.5 | 24.1 | 0.00 | 0.00 | 0.00 | 38 | 994.6 |
| 20260504150837 | 20 | 233 | 14.5 | 17.7 | 0.00 | 0.00 | 0.00 | 37 | 994.7 |
| 20260504150334 | 20 | 239 | 9.7 | 16.1 | 0.00 | 0.00 | 0.00 | 38 | 994.7 |